Regional Weather Roundup
Issued by NWS

Home | Current Version | Previous Version | Text Only | Print | Product List | Glossary Off
Versions: 1 2 3 4 5 6 7 8 9 10 11 12 13 14 15 16 17 18 19 20 21 22 23 24 25 26 27 28 29 30 31 32 33 34 35 36 37 38 39 40 41 42 43 44 45 46 47 48 49 50

000
ASUS43 KOAX 290810
RWRNE

WEATHER ROUNDUP FOR NEBRASKA
NATIONAL WEATHER SERVICE OMAHA NE
300 AM CDT WED JUL 29 2015

NOTES: SATELLITE DATA IS BEING USED TO AUGMENT CLOUD COVER ABOVE
       12000 FEET.
       "FAIR" INDICATES FEW OR NO CLOUDS BELOW 12,000 FEET WITH NO
       SIGNIFICANT WEATHER AND/OR OBSTRUCTIONS TO VISIBILITY.

  * THESE STATIONS DO NOT REPORT WEATHER SUCH AS RAIN...SNOW OR FOG.

NEZ001>004-019>022-054>056-290900-
NEBRASKA PANHANDLE

CITY           SKY/WX    TMP DP  RH WIND       PRES   REMARKS
SCOTTSBLUFF    CLEAR     55  43  63 N3        30.25R
ALLIANCE       CLEAR     47  42  83 N5        30.24S
CHADRON        CLEAR     48  42  80 SW6       30.24R
KIMBALL        CLEAR     55  41  60 E3        30.27S
SIDNEY         CLEAR     49  41  74 W6        30.27R
$$

NEZ057>060-069>072-079>082-290900-
SOUTHWEST NEBRASKA

CITY           SKY/WX    TMP DP  RH WIND       PRES   REMARKS
NORTH PLATTE   CLEAR     54  51  90 CALM      30.20R
IMPERIAL       CLEAR     59  49  69 NW3       30.21R
LEXINGTON      CLEAR     56  52  85 NW3       30.17R
MCCOOK         PTCLDY    60  54  80 CALM      30.17R
OGALLALA       CLEAR     53  50  89 CALM      30.22R
$$

NEZ005>010-023>029-035>040-094-290900-
NORTH CENTRAL NEBRASKA

CITY           SKY/WX    TMP DP  RH WIND       PRES   REMARKS
VALENTINE      CLEAR     49  45  86 W6        30.17R
AINSWORTH      CLEAR     54  49  81 SW5       30.18R
BROKEN BOW     CLEAR     58  48  69 N8        30.18R
O`NEILL        CLEAR     58  54  85 SW3       30.14S
ORD            CLEAR     55  53  93 NW5       30.14R
THEDFORD       CLEAR     54  49  86 CALM      30.21R
$$

NEZ041-046>049-061>064-073>077-083>087-290900-
SOUTH CENTRAL NEBRASKA

CITY           SKY/WX    TMP DP  RH WIND       PRES   REMARKS
GRAND ISLAND   CLEAR     60  54  80 CALM      30.13R
AURORA         CLEAR     60  59  96 NE3       30.12R
HASTINGS       CLEAR     63  56  78 E3        30.13R
HEBRON         CLEAR     65  60  85 CALM      30.10S
HOLDREGE       CLEAR     60  55  84 CALM      30.16R
KEARNEY *      CLEAR     61  52  72 CALM      30.15R
YORK           CLEAR     59  59 100 CALM      30.12R
$$

NEZ011>018-030>034-042>045-290900-
NORTHEAST NEBRASKA

CITY           SKY/WX    TMP DP  RH WIND       PRES   REMARKS
NORFOLK        CLEAR     59  55  87 CALM      30.11R
ALBION         CLEAR     55  52  88 CALM      30.14R
BLAIR          MOCLDY    63  59  88 CALM      30.08R
COLUMBUS *     CLEAR     55  52  88 NW3       30.11R
FREMONT        PTCLDY    62  59  91 NW3       30.09R
TEKAMAH        PTCLDY    62  60  93 NW6       30.08R
WAYNE          CLEAR     57  55  93 CALM      30.11R
$$

NEZ050>053-065>068-078-088>093-290900-
SOUTHEAST NEBRASKA

CITY           SKY/WX    TMP DP  RH WIND       PRES   REMARKS
LINCOLN        PTCLDY    62  60  93 N3        30.10R
OMAHA EPPLEY   MOCLDY    65  62  90 NW7       30.06R
BEATRICE       MOCLDY    65  64  96 CALM      30.08S
FALLS CITY     RAIN      71  71 100 N8        30.02F
NEBRASKA CITY  CLOUDY    69  58  68 N8        30.07R
PLATTSMOUTH    CLOUDY    69  59  71 CALM      30.07R
$$

NEZ044-045-051>053-067-290900-
OMAHA AREA

CITY           SKY/WX    TMP DP  RH WIND       PRES   REMARKS
OMAHA EPPLEY   MOCLDY    65  62  90 NW7       30.06R
BLAIR          MOCLDY    63  59  88 CALM      30.08R
FREMONT        PTCLDY    62  59  91 NW3       30.09R
MILLARD        MOCLDY    67  63  86 CALM      30.07R
OFFUTT AFB     CLOUDY    68  61  77 N1        30.06R
PLATTSMOUTH    CLOUDY    69  59  71 CALM      30.07R
WAHOO          FAIR      63  61  92 NW5       30.09R
$$



USA.gov is the U.S. government's official web portal to all federal, state and local government web resources and services.